Weather History for Sept Iles, QC

Change the Weather History Date:

Thursday, March 7, 2013

  Actual Average Record
Temperature  
Mean Temperature 25 °F -  
Max Temperature 31 °F - - ()
Min Temperature 17 °F - - ()
Degree Days  
Heating Degree Days 40    
Moisture  
Dew Point 19 °F    
Average Humidity 81    
Maximum Humidity 93    
Minimum Humidity 62    
Precipitation  
Precipitation 0.00 in - - ()
Sea Level Pressure  
Sea Level Pressure 30.50 in    
Wind  
Wind Speed 4 mph ()    
Max Wind Speed 8 mph    
Max Gust Speed -    
T = Trace of Precipitation, MM = Missing Value Source: Averaged Metar Reports

Daily Weather History Graph

Daily Weather History Graph

Search for Another Location

Airport:

Trip Planner

Search our weather history database for the weather conditions in past years. The results will help you decide how hot, cold, wet, or windy it might be!

Date:

Astronomy

Mar. 07, 2013 Rise Set
Actual Time 6:55 AM AST 6:17 PM AST
Civil Twilight 6:23 AM AST 6:49 PM AST
Nautical Twilight 5:45 AM AST 7:27 PM AST
Astronomical Twilight 5:07 AM AST 8:05 PM AST
Moon 4:14 AM AST (3/7) 1:39 PM AST (3/7)
Length of Visible Light 12h 26m
Length of Day
11h 21m
Waning Crescent, 20% of the Moon is Illuminated
Mar 7
Waning Crescent
Mar 11
New
Mar 19
First Quarter
Mar 27
Full
Apr 3
Last Quarter

Hourly Weather History & Observations

Time (AST) Temp. Windchill Dew Point Humidity Pressure Visibility Wind Dir Wind Speed Gust Speed Precip Events Conditions
12:00 AM 23.0 °F 18.4 °F 18.0 °F 81% 30.51 in - NNE 3.5 mph - N/A   Unknown
1:00 AM 21.6 °F 16.8 °F 17.1 °F 83% 30.51 in - NNE 3.5 mph - N/A   Unknown
2:00 AM 21.0 °F 14.6 °F 17.1 °F 85% 30.52 in - NNE 4.6 mph - N/A   Unknown
3:00 AM 20.5 °F 15.6 °F 16.7 °F 85% 30.52 in - North 3.5 mph - N/A   Unknown
4:00 AM 21.2 °F 14.9 °F 17.2 °F 85% 30.52 in - NNE 4.6 mph - N/A   Unknown
5:00 AM 20.1 °F 13.6 °F 16.5 °F 86% 30.51 in - NNE 4.6 mph - N/A   Unknown
6:00 AM 19.8 °F 13.2 °F 16.3 °F 87% 30.52 in - North 4.6 mph - N/A   Unknown
7:00 AM 19.4 °F 11.5 °F 16.3 °F 88% 30.53 in - NNE 5.8 mph - N/A   Unknown
8:00 AM 21.4 °F 13.8 °F 16.9 °F 83% 30.54 in - North 5.8 mph - N/A   Unknown
9:00 AM 26.4 °F 19.8 °F 18.5 °F 72% 30.53 in - North 5.8 mph - N/A   Unknown
10:00 AM 30.7 °F 24.1 °F 19.0 °F 62% 30.51 in - NNE 6.9 mph - N/A   Unknown
11:00 AM 29.1 °F 21.3 °F 22.5 °F 76% 30.51 in - SSE 8.1 mph - N/A   Unknown
12:00 PM 28.6 °F 20.7 °F 22.8 °F 79% 30.51 in - SSE 8.1 mph - N/A   Unknown
1:00 PM 29.5 °F 23.4 °F 23.9 °F 80% 30.51 in - South 5.8 mph - N/A   Unknown
2:00 PM 30.7 °F 27.3 °F 21.4 °F 68% 30.51 in - SSE 3.5 mph - N/A   Unknown
3:00 PM 31.3 °F 27.9 °F 22.1 °F 69% 30.49 in - South 3.5 mph - N/A   Unknown
4:00 PM 31.5 °F 28.1 °F 21.6 °F 67% 30.48 in - South 3.5 mph - N/A   Unknown
5:00 PM 30.9 °F 27.5 °F 21.9 °F 69% 30.46 in - South 3.5 mph - N/A   Unknown
6:00 PM 28.4 °F - 24.3 °F 84% 30.46 in - SSE 1.2 mph - N/A   Unknown
7:00 PM 25.7 °F - 22.5 °F 88% 30.44 in - North 2.3 mph - N/A   Unknown
8:00 PM 23.5 °F - 21.0 °F 90% 30.45 in - Calm Calm - N/A   Unknown
9:00 PM 21.7 °F - 19.4 °F 91% 30.45 in - Calm Calm - N/A   Unknown
10:00 PM 19.6 °F - 17.6 °F 92% 30.45 in - Calm Calm - N/A   Unknown
11:00 PM 17.4 °F - 15.8 °F 93% 30.45 in - NE 2.3 mph - N/A   Unknown